Regional Weather Roundup
Issued by NWS

Home | Current Version | Previous Version | Text Only | Print | Product List | Glossary Off
Versions: 1 2 3 4 5 6 7 8 9 10 11 12 13 14 15 16 17 18 19 20 21 22 23 24 25 26 27 28 29 30 31 32 33 34 35 36 37 38 39 40 41 42 43 44 45 46 47 48 49 50

000
ASUS43 KLOT 250158
RWRIL

ILLINOIS REGIONAL WEATHER ROUNDUP
NATIONAL WEATHER SERVICE CHICAGO/ROMEOVILLE IL
900 PM CDT THU JUL 24 2014

NOTE: "FAIR" INDICATES FEW OR NO CLOUDS BELOW 12,000 FEET WITH NO
SIGNIFICANT WEATHER AND/OR OBSTRUCTIONS TO VISIBILITY.

* THESE STATIONS ARE NOT UNDER NWS QUALITY CONTROL. THEY ALSO MAY NOT
  REPORT WEATHER SUCH AS PRECIPITATION OR FOG.

ILZ001-002-007-009-015-016-024-250300-
NORTHWEST ILLINOIS

CITY           SKY/WX    TMP DP  RH WIND       PRES   REMARKS
MOLINE         CLOUDY    69  59  70 S7        30.03F
$$

ILZ003-004-008-010-011-017-018-250300-
NORTH CENTRAL ILLINOIS

CITY           SKY/WX    TMP DP  RH WIND       PRES   REMARKS
ROCKFORD       NOT AVBL
$$

ILZ005-006-012>014-019>023-250300-
NORTHEAST ILLINOIS

CITY           SKY/WX    TMP DP  RH WIND       PRES   REMARKS
CHICAGO-OHARE  MOCLDY    67  42  40 E8        30.06F
CHICAGO-MIDWAY CLOUDY    68  49  50 E7        30.08F
AURORA         MOCLDY    64  52  64 SE6       30.07F
WAUKEGAN       MOCLDY    60  50  69 SE5       30.06F
DUPAGE AIRPORT PTCLDY    66  47  50 E7        30.06F
WHEELING       MOCLDY    66  44  45 SE6       30.08F
$$

LMZ740>746-250300-
SOUTHERN LAKE MICHIGAN

STATION/POSITION SKY/WX   TEMP    WIND        PRES    VSBY  WAVE
                          AIR SEA DIR/SP/G                  HT/PER
                          (F)     (DEG/KT/KT) (MB)    (MI)  (FT/S)
SOUTHERN BUOY              61 62  260/  4/  4 1019.1R
WAUKEGAN HARBOR            64     170/  5/  5   N/A
HARRISON CRIB              64      70/  4/  4   N/A
CALUMET HARBOR             64      30/  2/  3 1017.9F
MICHIGAN CITY              65      10/  7/  9   N/A
MICHIGAN CITY 6N           65 69  360/  6/  8   N/A           2/ 2
ST. JOSEPH                 57 51  310/  2/  4   N/A           1/ 4
$$

ILZ025>027-034>036-040-047-049-050-058-095>099-250300-
WEST-CENTRAL ILLINOIS

CITY           SKY/WX    TMP DP  RH WIND       PRES   REMARKS
QUINCY         MOCLDY    70  59  68 CALM      30.08R
$$

ILZ028>032-037-038-041>044-048-051>054-059>061-250300-
CENTRAL ILLINOIS

CITY           SKY/WX    TMP DP  RH WIND       PRES   REMARKS
PEORIA         NOT AVBL
SPRINGFIELD    CLOUDY    70  57  63 E3        30.06F
TAYLORVILLE    NOT AVBL
$$

ILZ033-039-045-046-055>057-062-063-250300-
EAST-CENTRAL ILLINOIS

CITY           SKY/WX    TMP DP  RH WIND       PRES   REMARKS
CHAMPAIGN      PTCLDY    65  56  72 E6        30.07F
MATTOON        PTCLDY    66  57  72 NW3       30.08R
$$

ILZ079-100>102-250300-
SOUTHWEST ILLINOIS

CITY           SKY/WX    TMP DP  RH WIND       PRES   REMARKS
CAHOKIA*       CLEAR     68  56  65 E5        30.04F
$$

ILZ064>066-069>071-074>076-080>082-084>086-088>090-092>094-250300-
SOUTH-CENTRAL ILLINOIS

CITY           SKY/WX    TMP DP  RH WIND       PRES   REMARKS
CARBONDALE     PTCLDY    67  60  78 CALM      30.06R
$$

ILZ067-068-072-073-078-083-087-091-250300-
SOUTHEAST ILLINOIS

CITY           SKY/WX    TMP DP  RH WIND       PRES   REMARKS
LAWRENCEVILLE  CLEAR     67  62  84 N5        30.07R
$$

ABBREVIATIONS USED IN REMARKS
   TC - TEMPERATURE IN CELSIUS
  WCI - WIND CHILL INDEX
   HX - HEAT INDEX
  VSB - VISIBILITY
$$




USA.gov is the U.S. government's official web portal to all federal, state and local government web resources and services.